GW2822 Weather Reports


time (UTC)temp
C
wind
direction
speed
KPH
gust
KPH
rain 1hr
cm
rain 24hr
cm
rain mn
cm
humidity
%
barometer
mb
20260901133557 22 244 0.0 3.2 0.00 0.00 0.00 94 1013.8
20260901133050 22 194 0.0 0.0 0.00 0.00 0.00 94 1013.7
20260901132537 22 194 0.0 0.0 0.00 0.00 0.00 94 1013.7
20260901132024 21 194 0.0 0.0 0.00 0.00 0.00 93 1013.7
20260901131515 21 194 0.0 0.0 0.00 0.00 0.00 93 1013.7
20260901131005 21 194 0.0 1.6 0.00 0.00 0.00 93 1013.7
20260901130555 21 194 0.0 0.0 0.00 0.00 0.00 93 1013.7
20260901130035 21 194 0.0 0.0 0.00 0.00 0.00 93 1013.6
20260901125520 20 194 0.0 0.0 0.00 0.00 0.00 93 1013.5
20260901125010 20 194 0.0 0.0 0.00 0.00 0.00 92 1013.5
20260901124602 20 194 0.0 0.0 0.00 0.00 0.00 92 1013.4
20260901124052 20 194 0.0 0.0 0.00 0.00 0.00 92 1013.3
20260901123539 20 194 0.0 0.0 0.00 0.00 0.00 92 1013.3
20260901123034 20 179 0.0 0.0 0.00 0.00 0.00 92 1013.2
20260901122518 20 204 0.0 0.0 0.00 0.00 0.00 92 1013.2
20260901122007 20 204 0.0 0.0 0.00 0.00 0.00 92 1013.1
20260901121606 20 204 0.0 0.0 0.00 0.00 0.00 92 1013.1
20260901121047 20 204 0.0 0.0 0.00 0.00 0.00 92 1013.0
20260901120537 20 204 0.0 0.0 0.00 0.00 0.00 92 1013.0
20260901120011 20 204 0.0 0.0 0.00 0.00 0.00 92 1013.0
20260901115602 20 204 0.0 0.0 0.00 0.00 0.00 91 1013.1
20260901115052 20 204 0.0 0.0 0.00 0.00 0.00 91 1013.1
20260901114553 20 204 0.0 0.0 0.00 0.00 0.00 91 1013.0
20260901114030 20 205 0.0 0.0 0.00 0.00 0.00 91 1012.9
20260901113520 20 204 0.0 3.2 0.00 0.00 0.00 91 1013.0
20260901113010 20 204 0.0 3.2 0.00 0.00 0.00 91 1012.9
20260901112600 21 167 0.0 1.6 0.00 0.00 0.00 90 1013.0
20260901112050 21 165 0.0 0.0 0.00 0.00 0.00 90 1013.1
20260901111541 21 165 0.0 0.0 0.00 0.00 0.00 90 1013.0
20260901111029 21 165 0.0 0.0 0.00 0.00 0.00 90 1012.9
20260901110517 21 165 0.0 0.0 0.00 0.00 0.00 90 1013.0
20260901110054 21 165 0.0 0.0 0.00 0.00 0.00 89 1013.0
20260901105542 21 165 0.0 0.0 0.00 0.00 0.00 89 1013.0
20260901105033 21 165 0.0 0.0 0.00 0.00 0.00 89 1013.0
20260901104521 21 165 0.0 0.0 0.00 0.00 0.00 89 1013.0
20260901104011 21 165 0.0 0.0 0.00 0.00 0.00 89 1013.0
20260901103601 21 165 0.0 0.0 0.00 0.00 0.00 89 1012.9
20260901103102 21 165 0.0 0.0 0.00 0.00 0.00 89 1013.0
20260901102541 21 165 0.0 0.0 0.00 0.00 0.00 88 1013.0
20260901102030 21 165 0.0 0.0 0.00 0.00 0.00 88 1012.9
20260901101519 21 165 0.0 0.0 0.00 0.00 0.00 88 1012.8
20260901101009 21 165 0.0 0.0 0.00 0.00 0.00 88 1012.7
20260901100602 22 165 0.0 0.0 0.00 0.00 0.00 88 1012.7
20260901100042 22 165 0.0 1.6 0.00 0.00 0.00 87 1012.7
20260901095528 22 165 0.0 3.2 0.00 0.00 0.00 87 1012.8
20260901095014 22 166 0.0 3.2 0.00 0.00 0.00 86 1012.8
20260901094506 22 166 0.0 0.0 0.00 0.00 0.00 85 1012.8
20260901094055 22 166 0.0 0.0 0.00 0.00 0.00 85 1012.8
20260901093543 22 166 0.0 0.0 0.00 0.00 0.00 84 1012.8
20260901093035 23 166 0.0 0.0 0.00 0.00 0.00 84 1012.9
20260901092522 23 166 0.0 0.0 0.00 0.00 0.00 84 1013.0
20260901092015 23 166 0.0 0.0 0.00 0.00 0.00 84 1013.0
20260901091501 23 166 0.0 0.0 0.00 0.00 0.00 83 1013.0
20260901091054 23 166 0.0 0.0 0.00 0.00 0.00 83 1013.0
20260901090542 23 166 0.0 0.0 0.00 0.00 0.00 83 1013.0
20260901090019 23 166 0.0 0.0 0.00 0.00 0.00 83 1013.0
20260901085508 24 166 0.0 0.0 0.00 0.00 0.00 82 1013.0
20260901085059 24 166 0.0 0.0 0.00 0.00 0.00 82 1013.0
20260901084548 24 166 0.0 0.0 0.00 0.00 0.00 82 1013.0
20260901084039 24 166 0.0 0.0 0.00 0.00 0.00 82 1013.0
20260901083527 24 166 0.0 1.6 0.00 0.00 0.00 81 1013.0
20260901083017 25 166 0.0 0.0 0.00 0.00 0.00 80 1013.0
20260901082509 25 166 0.0 0.0 0.00 0.00 0.00 80 1012.9
20260901082057 25 166 0.0 0.0 0.00 0.00 0.00 80 1012.9
20260901081548 25 166 0.0 0.0 0.00 0.00 0.00 80 1012.9
20260901081035 25 166 0.0 1.6 0.00 0.00 0.00 80 1012.9
20260901080528 25 166 0.0 3.2 0.00 0.00 0.00 79 1012.9
20260901080003 25 166 0.0 4.8 0.00 0.00 0.00 78 1012.8
20260901075554 25 166 0.0 4.8 0.00 0.00 0.00 78 1012.8
20260901075042 25 163 0.0 4.8 0.00 0.00 0.00 78 1012.8
20260901074532 25 142 0.0 3.2 0.00 0.00 0.00 77 1012.9
20260901074021 25 138 0.0 4.8 0.00 0.00 0.00 77 1013.0
20260901073509 25 138 0.0 4.8 0.00 0.00 0.00 77 1013.0
20260901073102 25 145 0.0 4.8 0.00 0.00 0.00 76 1013.0
20260901072555 25 147 0.0 9.7 0.00 0.00 0.00 76 1012.9
20260901072039 26 145 1.6 9.7 0.00 0.00 0.00 75 1012.9
20260901071527 26 130 1.6 6.4 0.00 0.00 0.00 75 1012.9
20260901071014 26 130 0.0 4.8 0.00 0.00 0.00 74 1013.0
20260901070504 26 117 0.0 1.6 0.00 0.00 0.00 74 1012.8
20260901070043 26 117 0.0 1.6 0.00 0.00 0.00 73 1012.9
20260901065534 26 117 0.0 3.2 0.00 0.00 0.00 73 1012.9
20260901065022 26 165 0.0 4.8 0.00 0.00 0.00 73 1012.9
20260901064512 26 165 1.6 4.8 0.00 0.00 0.00 72 1012.8
20260901064103 26 183 0.0 4.8 0.00 0.00 0.00 72 1012.8
20260901063554 26 184 1.6 6.4 0.00 0.00 0.00 72 1012.7
20260901063044 26 180 1.6 11.3 0.00 0.00 0.00 72 1012.7
20260901062530 26 173 3.2 11.3 0.00 0.00 0.00 71 1012.7
20260901062018 27 163 3.2 9.7 0.00 0.00 0.00 71 1012.7
20260901061508 27 171 6.4 12.9 0.00 0.00 0.00 71 1012.8
20260901061101 27 179 1.6 12.9 0.00 0.00 0.00 71 1012.8
20260901060549 27 155 1.6 9.7 0.00 0.00 0.00 71 1012.7
20260901060024 27 155 0.0 11.3 0.00 0.00 0.00 70 1012.6
20260901055513 27 140 6.4 11.3 0.00 0.00 0.00 70 1012.6
20260901055004 27 173 3.2 12.9 0.00 0.00 0.00 70 1012.5
20260901054554 27 168 4.8 12.9 0.00 0.00 0.00 70 1012.5
20260901054043 27 124 3.2 14.5 0.00 0.00 0.00 69 1012.4
20260901053533 27 141 6.4 16.1 0.00 0.00 0.00 69 1012.3
20260901053021 27 128 6.4 16.1 0.00 0.00 0.00 69 1012.3
20260901052510 27 141 4.8 14.5 0.00 0.00 0.00 68 1012.3
20260901052102 27 168 9.7 14.5 0.00 0.00 0.00 68 1012.3
20260901051558 27 136 6.4 11.3 0.00 0.00 0.00 68 1012.3
20260901051041 27 164 4.8 12.9 0.00 0.00 0.00 68 1012.3
20260901050530 27 139 4.8 17.7 0.00 0.00 0.00 68 1012.2
20260901050007 27 164 6.4 17.7 0.00 0.00 0.00 67 1012.2
20260901045559 27 121 8.0 14.5 0.00 0.00 0.00 67 1012.2
20260901045048 27 125 6.4 16.1 0.00 0.00 0.00 67 1012.2
20260901044537 27 122 4.8 16.1 0.00 0.00 0.00 68 1012.1
20260901044023 27 134 6.4 14.5 0.00 0.00 0.00 68 1012.1
20260901043513 27 132 6.4 14.5 0.00 0.00 0.00 69 1012.1
20260901043002 27 177 4.8 11.3 0.00 0.00 0.00 70 1012.1
20260901042553 27 144 3.2 11.3 0.00 0.00 0.00 70 1012.1
20260901042044 26 163 1.6 11.3 0.00 0.00 0.00 70 1012.1
20260901041537 26 153 1.6 9.7 0.00 0.00 0.00 70 1012.1
20260901041021 26 112 0.0 3.2 0.00 0.00 0.00 69 1012.1
20260901040511 26 112 0.0 1.6 0.00 0.00 0.00 69 1012.2
20260901040108 26 113 0.0 4.8 0.00 0.00 0.00 69 1012.0
20260901035537 26 113 0.0 4.8 0.00 0.00 0.00 69 1012.0
20260901035025 26 112 0.0 1.6 0.00 0.00 0.00 68 1012.0
20260901034525 26 112 0.0 1.6 0.00 0.00 0.00 67 1012.0
20260901034004 26 144 0.0 0.0 0.00 0.00 0.00 65 1011.8
20260901033555 26 64 0.0 0.0 0.00 0.00 0.00 63 1011.8
20260901033045 27 64 0.0 0.0 0.00 0.00 0.00 63 1011.7
20260901032534 27 64 0.0 0.0 0.00 0.00 0.00 63 1011.7
20260901032024 27 64 0.0 0.0 0.00 0.00 0.00 64 1011.7
20260901031522 27 64 0.0 0.0 0.00 0.00 0.00 63 1011.6
20260901031001 27 64 0.0 0.0 0.00 0.00 0.00 62 1011.5
20260901030552 27 64 0.0 0.0 0.00 0.00 0.00 63 1011.5
20260901030028 27 64 0.0 0.0 0.00 0.00 0.00 60 1011.4
20260901025519 28 64 0.0 0.0 0.00 0.00 0.00 59 1011.3
20260901025009 28 64 0.0 0.0 0.00 0.00 0.00 59 1011.4
20260901024559 28 64 0.0 0.0 0.00 0.00 0.00 58 1011.3
20260901024048 28 64 0.0 0.0 0.00 0.00 0.00 57 1011.2
20260901023538 28 64 0.0 0.0 0.00 0.00 0.00 56 1011.1
20260901023026 28 64 0.0 0.0 0.00 0.00 0.00 56 1011.0
20260901022519 28 69 0.0 0.0 0.00 0.00 0.00 56 1010.9
20260901022008 28 69 0.0 3.2 0.00 0.00 0.00 56 1010.8
20260901021557 28 108 0.0 3.2 0.00 0.00 0.00 56 1010.7
20260901021046 28 128 0.0 3.2 0.00 0.00 0.00 55 1010.7
20260901020535 28 128 0.0 0.0 0.00 0.00 0.00 54 1010.6
20260901020012 29 128 0.0 0.0 0.00 0.00 0.00 55 1010.5
20260901015502 29 128 0.0 0.0 0.00 0.00 0.00 54 1010.4
20260901015053 30 128 0.0 0.0 0.00 0.00 0.00 53 1010.3
20260901014543 30 128 0.0 0.0 0.00 0.00 0.00 51 1010.3
20260901014033 30 128 0.0 0.0 0.00 0.00 0.00 50 1010.3
20260901013522 31 128 0.0 0.0 0.00 0.00 0.00 50 1010.3
20260901013028 31 128 0.0 0.0 0.00 0.00 0.00 50 1010.3
20260901012603 31 128 0.0 0.0 0.00 0.00 0.00 48 1010.2
20260901012051 31 128 0.0 0.0 0.00 0.00 0.00 48 1010.1
20260901011541 32 128 0.0 0.0 0.00 0.00 0.00 45 1010.1
20260901011030 32 128 0.0 0.0 0.00 0.00 0.00 45 1010.1
20260901010520 32 128 0.0 1.6 0.00 0.00 0.00 44 1010.0
20260901010058 32 128 0.0 1.6 0.00 0.00 0.00 44 1010.0
20260901005547 32 128 0.0 4.8 0.00 0.00 0.00 43 1010.0
20260901005035 33 129 0.0 6.4 0.00 0.00 0.00 43 1010.0
20260901004524 33 103 3.2 9.7 0.00 0.00 0.00 43 1010.0
20260901004014 33 84 3.2 9.7 0.00 0.00 0.00 43 1010.0
20260901003504 33 121 0.0 11.3 0.00 0.00 0.00 43 1010.0
20260901003055 33 113 3.2 12.9 0.00 0.00 0.00 43 1009.9
20260901002545 33 112 6.4 14.5 0.00 0.00 0.00 43 1009.9
20260901002035 33 86 3.2 14.5 0.00 0.00 0.00 43 1009.9
20260901001523 33 119 4.8 9.7 0.00 0.00 0.00 43 1009.8
20260901001012 34 76 4.8 11.3 0.00 0.00 0.00 42 1009.8
20260901000502 34 105 3.2 14.5 0.00 0.00 0.00 41 1009.7
20260901000041 34 113 6.4 14.5 0.00 0.00 0.00 41 1009.6
20260831235530 34 117 8.0 14.5 0.00 0.00 0.00 41 1009.6
20260831235020 35 90 6.4 14.5 0.00 0.00 0.00 42 1009.6
20260831234509 35 113 6.4 14.5 0.00 0.00 0.00 42 1009.6
20260831234101 35 123 11.3 17.7 0.00 0.00 0.00 41 1009.6
20260831233550 35 134 4.8 17.7 0.00 0.00 0.00 42 1009.6
20260831233039 35 148 9.7 17.7 0.00 0.00 0.00 41 1009.6
20260831232528 35 128 9.7 17.7 0.00 0.00 0.00 41 1009.6
20260831232018 35 91 6.4 16.1 0.00 0.00 0.00 40 1009.6
20260831231507 35 140 4.8 8.0 0.00 0.00 0.00 42 1009.6
20260831231058 35 121 3.2 16.1 0.00 0.00 0.00 41 1009.7
20260831230548 35 130 8.0 16.1 0.00 0.00 0.00 41 1009.7
20260831230024 35 126 6.4 17.7 0.00 0.00 0.00 42 1009.8
20260831225517 35 110 8.0 17.7 0.00 0.00 0.00 41 1009.8
20260831225005 35 92 1.6 17.7 0.00 0.00 0.00 43 1009.8
20260831224553 35 171 4.8 16.1 0.00 0.00 0.00 43 1009.9
20260831224046 35 136 9.7 16.1 0.00 0.00 0.00 43 1009.9
20260831223532 35 118 6.4 16.1 0.00 0.00 0.00 44 1009.9
20260831223022 35 110 8.0 16.1 0.00 0.00 0.00 43 1010.0
20260831222510 35 114 1.6 12.9 0.00 0.00 0.00 42 1010.0
20260831222103 35 99 4.8 16.1 0.00 0.00 0.00 43 1010.0
20260831221614 34 171 4.8 16.1 0.00 0.00 0.00 43 1010.1
20260831221041 34 117 3.2 14.5 0.00 0.00 0.00 44 1010.1
20260831220531 34 115 4.8 17.7 0.00 0.00 0.00 43 1010.2
20260831220008 34 115 4.8 19.3 0.00 0.00 0.00 43 1010.2
20260831215600 34 116 3.2 19.3 0.00 0.00 0.00 43 1010.2
20260831215049 35 91 4.8 11.3 0.00 0.00 0.00 42 1010.3
20260831214540 35 72 4.8 14.5 0.00 0.00 0.00 43 1010.4
20260831214027 35 86 9.7 14.5 0.00 0.00 0.00 43 1010.4
20260831213516 35 74 4.8 14.5 0.00 0.00 0.00 42 1010.4
20260831213006 36 50 6.4 24.1 0.00 0.00 0.00 40 1010.4
20260831212558 36 83 9.7 24.1 0.00 0.00 0.00 40 1010.5
20260831212049 36 108 11.3 20.9 0.00 0.00 0.00 40 1010.4
20260831211536 36 126 1.6 17.7 0.00 0.00 0.00 40 1010.6
20260831211024 36 175 11.3 19.3 0.00 0.00 0.00 39 1010.8
20260831210514 36 118 11.3 19.3 0.00 0.00 0.00 39 1010.9
20260831210051 36 211 9.7 19.3 0.00 0.00 0.00 38 1010.9
20260831205544 36 130 6.4 19.3 0.00 0.00 0.00 39 1010.9
20260831205030 36 160 3.2 19.3 0.00 0.00 0.00 40 1011.0
20260831204519 36 134 11.3 19.3 0.00 0.00 0.00 40 1011.1
20260831204011 36 202 9.7 16.1 0.00 0.00 0.00 39 1011.2
20260831203600 36 121 9.7 20.9 0.00 0.00 0.00 40 1011.2
20260831203106 36 134 9.7 20.9 0.00 0.00 0.00 40 1011.3
20260831202538 36 152 8.0 12.9 0.00 0.00 0.00 42 1011.4
20260831202030 36 175 6.4 16.1 0.00 0.00 0.00 42 1011.5
20260831201518 35 155 9.7 27.4 0.00 0.00 0.00 42 1011.6
20260831201007 35 187 9.7 27.4 0.00 0.00 0.00 43 1011.8
20260831200559 35 190 11.3 19.3 0.00 0.00 0.00 44 1011.8
20260831200112 35 119 8.0 20.9 0.00 0.00 0.00 44 1011.9
20260831195528 35 89 8.0 22.5 0.00 0.00 0.00 45 1012.0
20260831195013 35 107 11.3 22.5 0.00 0.00 0.00 45 1012.1
20260831194503 35 168 9.7 19.3 0.00 0.00 0.00 44 1012.0
20260831194055 35 167 8.0 22.5 0.00 0.00 0.00 45 1012.1
20260831193544 35 98 6.4 22.5 0.00 0.00 0.00 44 1012.2
20260831193034 35 132 14.5 22.5 0.00 0.00 0.00 44 1012.2
20260831192523 35 166 1.6 14.5 0.00 0.00 0.00 46 1012.3
20260831192011 35 114 4.8 24.1 0.00 0.00 0.00 47 1012.4
20260831191616 35 151 14.5 22.5 0.00 0.00 0.00 45 1012.5
20260831191052 35 130 9.7 16.1 0.00 0.00 0.00 46 1012.5
20260831190541 35 179 9.7 24.1 0.00 0.00 0.00 48 1012.6
20260831190030 35 191 8.0 17.7 0.00 0.00 0.00 47 1012.6
20260831185508 35 132 8.0 19.3 0.00 0.00 0.00 47 1012.7
20260831185059 34 120 9.7 19.3 0.00 0.00 0.00 47 1012.7
20260831184548 34 126 8.0 22.5 0.00 0.00 0.00 48 1012.8
20260831184037 34 144 12.9 22.5 0.00 0.00 0.00 49 1012.8
20260831183524 33 112 3.2 20.9 0.00 0.00 0.00 49 1012.9
20260831183013 34 114 9.7 19.3 0.00 0.00 0.00 49 1012.9
20260831182502 34 155 8.0 16.1 0.00 0.00 0.00 50 1012.9
20260831182054 34 155 8.0 17.7 0.00 0.00 0.00 51 1012.9
20260831181550 33 128 6.4 27.4 0.00 0.00 0.00 51 1013.1
20260831181033 33 148 14.5 27.4 0.00 0.00 0.00 50 1013.1
20260831180521 33 66 9.7 19.3 0.00 0.00 0.00 52 1013.1
20260831180111 33 140 4.8 19.3 0.00 0.00 0.00 52 1013.1
20260831175550 33 151 8.0 19.3 0.00 0.00 0.00 53 1013.2
20260831175039 32 164 11.3 19.3 0.00 0.00 0.00 54 1013.2
20260831174529 32 123 6.4 17.7 0.00 0.00 0.00 54 1013.3
20260831174019 33 65 3.2 17.7 0.00 0.00 0.00 55 1013.3
20260831173508 32 184 11.3 19.3 0.00 0.00 0.00 57 1013.4
20260831173104 32 142 4.8 16.1 0.00 0.00 0.00 56 1013.5
20260831172545 33 212 3.2 16.1 0.00 0.00 0.00 55 1013.4
20260831172036 33 188 9.7 19.3 0.00 0.00 0.00 55 1013.5
20260831171524 33 161 11.3 19.3 0.00 0.00 0.00 54 1013.6
20260831171013 33 159 4.8 19.3 0.00 0.00 0.00 54 1013.6
20260831170502 32 90 11.3 22.5 0.00 0.00 0.00 55 1013.7
20260831170043 32 98 12.9 22.5 0.00 0.00 0.00 55 1013.6
20260831165530 32 200 6.4 16.1 0.00 0.00 0.00 59 1013.7
20260831165020 32 148 6.4 14.5 0.00 0.00 0.00 58 1013.7
20260831164516 32 229 4.8 14.5 0.00 0.00 0.00 58 1013.7
20260831164100 32 176 8.0 17.7 0.00 0.00 0.00 57 1013.7
20260831163550 32 150 11.3 17.7 0.00 0.00 0.00 55 1013.7
20260831163041 32 129 9.7 24.1 0.00 0.00 0.00 55 1013.7
20260831162529 32 158 9.7 24.1 0.00 0.00 0.00 58 1013.7
20260831162018 32 155 8.0 17.7 0.00 0.00 0.00 61 1013.7
20260831161507 31 153 8.0 19.3 0.00 0.00 0.00 62 1013.6
20260831161059 31 103 12.9 19.3 0.00 0.00 0.00 63 1013.6
20260831160548 31 109 9.7 19.3 0.00 0.00 0.00 64 1013.6
20260831160026 31 183 6.4 14.5 0.00 0.00 0.00 64 1013.6
20260831155515 30 207 4.8 16.1 0.00 0.00 0.00 63 1013.6
20260831155004 30 157 8.0 16.1 0.00 0.00 0.00 67 1013.6
20260831154558 30 150 8.0 14.5 0.00 0.00 0.00 68 1013.7
20260831154048 30 181 4.8 16.1 0.00 0.00 0.00 70 1013.5
20260831153533 29 144 8.0 17.7 0.00 0.00 0.00 71 1013.5
20260831153023 28 146 8.0 17.7 0.00 0.00 0.00 74 1013.5
20260831152516 28 228 9.7 17.7 0.00 0.00 0.00 75 1013.5
20260831152002 28 187 3.2 14.5 0.00 0.00 0.00 77 1013.4
20260831151553 27 173 8.0 14.5 0.00 0.00 0.00 78 1013.5
20260831151042 27 175 8.0 14.5 0.00 0.00 0.00 79 1013.5
20260831150532 27 163 8.0 14.5 0.00 0.00 0.00 79 1013.5
20260831150008 27 167 6.4 14.5 0.00 0.00 0.00 79 1013.5
20260831145559 27 210 6.4 14.5 0.00 0.00 0.00 79 1013.3
20260831145050 27 203 4.8 14.5 0.00 0.00 0.00 79 1013.4
20260831144535 27 203 8.0 17.7 0.00 0.00 0.00 79 1013.4
20260831144025 27 200 11.3 24.1 0.00 0.00 0.00 79 1013.3
20260831143515 27 200 11.3 24.1 0.00 0.00 0.00 80 1013.2
20260831143006 27 173 4.8 14.5 0.00 0.00 0.00 83 1013.2
20260831142555 27 199 8.0 16.1 0.00 0.00 0.00 84 1013.2
20260831142047 26 214 8.0 14.5 0.00 0.00 0.00 85 1013.3
20260831141533 26 188 8.0 14.5 0.00 0.00 0.00 87 1013.2
20260831141021 26 151 8.0 16.1 0.00 0.00 0.00 89 1013.2
20260831140514 26 179 6.4 17.7 0.00 0.00 0.00 91 1013.1
20260831140050 25 180 8.0 17.7 0.00 0.00 0.00 92 1013.2
20260831135539 25 161 9.7 14.5 0.00 0.00 0.00 93 1013.2
20260831135029 25 140 8.0 16.1 0.00 0.00 0.00 94 1013.1
20260831134518 25 137 8.0 17.7 0.00 0.00 0.00 94 1013.0
20260831134007 25 184 6.4 17.7 0.00 0.00 0.00 95 1012.9